User: anonymous   Login
Location: Austin
(30.3000°N, 97.7500°W)
Time: 19:05:28
(UTC-05:00)
Language:

CBERS-1 - Orbit

View from above orbital plane
View from above orbital plane
View from above satellite
View from above satellite

Ground track
Ground track

The orbit data is extracted from the following two-line orbital elements,

1 25940U 99057A   24147.93672394  .00000411  00000-0  15650-3 0  9997
2 25940  98.8037 126.9825 0005975  60.4807 299.6973 14.36247195289647
Epoch (UTC): 26 May 2024 22:28:52
Eccentricity: 0.0005975
inclination: 98.8037°
perigee height: 766 km
apogee height: 775 km
right ascension of ascending node: 126.9825°
argument of perigee: 60.4807°
revolutions per day: 14.36247195
mean anomaly at epoch: 299.6973°
orbit number at epoch: 28964

The dashed part of the orbit path shows where the satellite is in the earth's shadow,  

DLR